STARLINK-30108 (56299 NORAD) Tracking and Keplerian Element Data

This shows tracking and keplerian element data for the satellite.

Feedback or suggestion? Click here.




ElementValue
Catalog56299
NameSTARLINK-30108
Epoch Orbit325
Epoch Day127.20667208
Epoch Year2023
RAAN96.605
Inclination43.0021
Eccentricity0.0002179
Argument of Perigee225.8103
Mean Anonmoly134.2585
Mean Motion15.7041359
Decay Rate0.00146107
L11 56299U 23056P 23127.20667208 .00146107 00000+0 11424-2 0 9995
L22 56299 43.0021 96.6050 0002179 225.8103 134.2585 15.70413590 3252



Live tracking and technical data element details for STARLINK-30108 (NORAD 56299). STARLINK-30108 can be tracked NOW for your location showing map with azimuth and elevation plus other details from your city location.







IsCatalogInMostPopularTable: catalog: 56299, numindb: 6
Update: records affected: 1



GetName: 56299 STARLINK-30108

Hit Count: updated at: Wed, 07 Jun 2023 08:34:50 GMT